EHI
0 0 0 0 0 0 0 0 0 1 1 1 2 5 8 8 7 7 9 14 18 22 27 31 36 39 43 51 56 57 55 52 51 51 50 49 47 44 38 32 31 29 25 23
0 0 0 0 0 0 0 0 0 0 0 1 2 5 6 6 6 7 10 14 17 22 27 33 37 39 44 51 56 57 55 52 50 49 48 47 47 43 37 33 32 28 24 22
0 0 0 0 0 0 0 0 0 0 0 1 2 4 6 6 6 7 10 11 14 21 29 35 38 38 41 48 53 55 55 53 49 47 45 45 43 39 34 33 30 26 21 19
0 0 0 0 0 0 0 0 0 0 0 0 1 2 6 9 8 7 8 9 13 22 30 35 37 38 39 42 47 51 54 53 49 46 44 42 38 33 30 29 27 23 19 17
0 0 0 0 0 0 0 0 0 0 0 0 0 1 6 10 11 11 10 11 17 25 30 32 36 39 39 38 41 46 49 50 47 44 41 38 33 29 27 27 24 20 18 16
0 0 0 0 0 0 0 0 0 0 0 0 0 1 5 10 14 16 15 16 21 26 28 30 34 40 41 39 38 40 43 44 42 38 35 32 28 25 26 25 21 18 17 16
0 0 0 0 0 0 0 0 0 0 0 0 0 2 6 11 16 18 18 18 21 23 24 26 32 38 41 41 41 40 38 38 36 33 30 27 24 23 23 23 19 16 15 15
0 0 0 0 0 0 0 0 0 0 0 0 0 3 9 15 20 23 22 21 21 19 18 21 28 33 37 40 42 39 34 32 31 28 26 25 24 22 20 19 16 13 12 11
0 0 0 0 0 0 0 0 0 0 0 0 0 3 11 17 21 24 24 22 21 18 16 17 22 27 32 35 36 32 28 27 27 24 22 20 20 20 19 17 13 11 9 8
0 0 0 0 0 0 0 0 0 0 0 0 0 2 9 16 17 17 18 17 16 15 13 14 18 23 27 28 27 25 21 20 21 19 16 15 16 17 18 16 13 11 9 7
0 0 0 0 0 0 0 0 0 0 0 0 0 1 7 12 12 9 9 9 10 10 10 11 15 19 21 20 20 19 15 13 14 14 13 13 14 15 16 15 14 12 10 8
0 0 0 0 0 0 0 0 0 0 0 0 0 1 5 9 8 6 7 7 7 7 7 8 9 13 14 14 15 14 11 8 7 7 10 12 13 14 13 12 12 12 11 9
0 0 0 0 0 0 0 0 0 0 0 0 0 0 2 5 6 7 9 9 7 6 6 5 5 6 8 10 12 13 10 6 3 3 5 8 10 11 10 9 9 9 8 7
0 0 0 0 0 0 0 0 0 0 0 0 0 0 1 3 4 7 9 9 7 5 4 4 4 4 6 9 10 10 8 4 2 1 2 4 6 8 7 5 5 5 4 2
0 0 0 0 0 0 0 0 0 0 0 0 0 1 3 3 4 6 6 7 6 4 4 3 3 4 6 8 9 8 6 4 1 1 2 2 4 5 4 4 4 3 1 0
0 0 0 0 0 0 0 0 0 0 0 0 0 2 4 5 4 4 4 5 5 5 4 3 3 4 6 7 8 7 6 4 2 1 1 1 2 3 3 4 4 2 0 0
0 0 0 0 0 0 0 0 0 0 0 0 1 3 4 4 4 4 4 5 5 5 5 4 3 4 5 6 7 6 6 5 3 2 1 0 1 1 2 3 3 2 1 0
0 0 0 0 0 0 0 0 0 0 0 0 2 3 3 5 5 4 5 5 5 5 5 4 3 3 4 6 5 5 6 6 4 3 2 1 0 0 1 2 3 3 2 1
0 0 0 0 0 0 0 0 0 0 1 1 1 1 2 4 5 4 4 3 2 2 2 2 2 2 3 5 5 5 6 5 4 3 2 1 0 0 1 2 2 3 3 2
0 0 0 0 0 0 0 0 0 0 1 2 2 1 1 2 3 3 2 1 0 0 0 0 0 0 2 3 4 5 5 4 3 3 2 1 0 0 1 2 3 3 2 2
0 0 0 0 0 0 0 0 0 0 1 3 3 3 2 2 2 2 2 1 0 0 0 0 0 0 0 1 2 4 4 2 2 2 1 0 0 0 0 1 2 2 2 2
0 0 0 0 0 0 0 0 0 0 1 2 3 3 3 2 1 2 2 1 0 0 0 0 0 0 0 0 0 1 1 1 1 1 0 0 0 0 0 0 1 1 1 2
0 0 0 0 0 0 0 0 1 1 1 3 3 2 2 1 1 2 3 1 0 0 0 0 0 0 0 0 0 0 0 0 0 0 0 0 0 0 0 1 0 0 1 1
0 0 0 0 0 0 0 0 1 2 3 3 2 1 0 0 1 2 3 1 0 0 0 0 0 0 0 0 0 0 0 0 0 0 0 0 0 0 1 2 1 0 0 0
0 0 0 0 0 0 0 0 1 2 3 3 2 1 0 0 0 1 3 2 0 0 0 0 0 0 0 0 1 1 0 0 0 0 0 0 0 0 1 2 1 0 0 0
0 0 0 0 0 0 0 0 1 2 3 3 2 1 0 0 0 1 3 3 1 0 0 0 0 0 1 1 1 1 0 0 0 0 0 0 0 0 1 1 1 0 0 0
Wind_Speed
10 9 8 6 6 8 9 8 7 6 5 4 5 4 3 2 2 2 2 2 3 4 6 6 7 7 7 6 6 5 5 5 4 3 3 2 2 2 2 2 2 2 1 1
8 9 8 7 7 8 8 8 8 6 6 6 5 5 3 4 4 3 3 2 2 4 5 6 6 7 6 6 6 5 5 5 4 3 2 2 1 1 2 1 2 2 1 2
7 5 4 6 6 7 8 7 8 9 8 7 6 6 4 5 4 4 3 3 2 5 6 6 5 5 5 5 5 4 4 5 4 4 3 1 1 1 1 2 2 2 2 2
7 6 5 6 7 7 8 8 10 11 10 7 8 5 5 6 5 4 2 2 1 2 6 5 5 4 4 4 5 4 4 4 4 4 4 4 3 2 2 1 2 2 3 3
8 6 6 6 6 8 8 10 12 12 12 10 7 6 3 5 4 4 3 2 1 2 4 5 5 5 4 4 4 4 4 3 3 3 3 3 2 1 1 1 2 2 3 3
9 6 5 7 8 7 8 11 12 12 10 9 7 7 2 2 3 5 4 2 2 2 4 4 4 5 5 4 4 4 4 3 3 3 3 3 2 2 1 2 2 2 2 2
9 5 4 5 9 7 8 8 7 6 6 6 6 4 2 4 4 6 5 3 4 4 5 4 4 4 5 4 4 4 4 2 2 3 3 3 3 3 3 3 2 2 2 2
9 6 6 7 8 9 8 6 5 7 7 7 8 2 5 8 8 9 7 6 7 6 5 5 5 5 4 4 4 4 3 3 2 1 2 2 2 2 2 1 2 2 2 1
8 9 10 9 9 9 8 6 7 8 9 9 6 1 5 8 10 9 8 6 6 5 5 5 5 5 5 4 4 3 2 2 2 1 1 2 2 2 2 2 3 2 1 2
9 11 11 10 9 7 8 8 6 6 7 7 7 4 2 6 6 6 5 5 7 6 5 4 4 4 4 4 3 3 3 2 1 1 1 1 2 2 2 3 3 2 1 1
10 9 11 10 8 10 9 8 7 6 7 8 7 3 4 6 5 5 5 5 5 5 4 4 4 4 3 3 3 2 2 1 1 1 1 1 1 2 2 2 2 1 1 1
9 7 10 11 9 7 7 7 7 6 6 8 7 3 5 6 6 5 5 4 5 5 4 4 4 4 3 3 2 1 1 1 1 1 1 1 0 1 2 2 2 1 1 1
9 6 9 7 5 5 7 8 9 8 6 6 7 4 3 4 5 6 6 5 5 5 5 5 4 4 3 3 3 1 1 0 1 0 1 1 1 1 2 3 2 1 2 2
5 6 7 9 11 11 11 11 10 8 6 6 7 7 3 4 5 5 5 5 5 4 5 4 3 3 3 2 2 2 2 1 1 1 1 1 1 1 2 3 2 2 2 2
5 7 9 12 13 13 13 12 10 8 7 7 7 5 5 5 4 4 4 4 4 5 5 5 4 3 2 2 2 3 3 2 2 2 2 2 1 1 2 2 3 2 2 3
6 8 11 13 13 12 11 11 10 7 7 6 5 3 4 4 4 4 4 4 4 4 5 6 4 3 2 2 2 2 3 2 2 2 3 2 2 2 2 2 2 2 2 2
7 8 10 10 12 12 5 7 8 6 8 7 6 5 5 4 4 4 3 3 4 5 5 6 6 4 3 2 2 2 2 2 2 2 3 2 2 2 2 3 2 2 2 2
7 8 6 9 10 6 4 7 8 7 6 8 7 6 6 5 4 3 3 4 5 5 5 5 5 4 3 2 2 2 2 2 2 2 2 3 3 2 2 2 2 2 2 2
5 5 6 6 7 6 6 8 8 7 6 8 7 6 6 6 4 2 4 5 4 3 3 4 4 4 3 3 3 2 2 3 3 3 3 3 3 2 2 2 2 2 2 3
3 4 6 7 8 7 6 8 8 6 3 9 9 7 7 6 5 3 5 5 4 3 3 3 4 4 3 3 2 3 3 3 3 3 3 3 3 3 3 2 3 3 3 3
5 6 7 9 8 4 7 11 10 6 6 9 8 7 7 6 5 4 5 4 4 3 4 4 4 4 3 3 2 3 3 3 3 3 3 3 3 3 3 2 3 2 3 3
8 7 7 7 7 4 11 11 8 6 7 8 7 6 6 5 5 5 5 4 3 3 4 4 4 4 3 3 2 3 3 3 3 3 3 3 3 4 3 2 2 3 3 3
5 5 5 5 5 6 8 7 5 6 7 7 7 5 5 5 5 6 5 4 4 4 4 4 4 4 3 3 2 3 3 3 4 3 3 3 3 3 3 3 2 2 2 2
6 6 7 6 5 8 8 8 8 7 8 7 6 5 6 6 6 6 5 4 4 4 4 4 5 4 4 3 2 3 4 3 3 3 3 3 3 3 2 2 2 2 2 2
9 8 8 8 7 7 7 9 10 9 8 7 6 5 5 5 5 5 4 4 3 3 3 3 4 4 4 4 3 3 3 2 2 3 3 3 4 3 2 1 1 2 1 1
7 7 7 7 7 8 8 8 9 9 8 7 7 6 5 5 5 5 4 3 3 3 3 3 4 5 5 4 3 3 2 2 2 3 3 3 3 2 2 2 1 0 1 1
Wind_Direction
238 242 253 254 246 259 278 287 287 289 277 255 242 235 213 204 201 202 190 177 154 159 146 140 142 143 146 150 153 156 162 158 163 170 181 189 195 199 181 185 168 178 220 259
244 244 258 266 267 268 281 291 296 296 293 284 263 254 212 178 186 187 190 151 171 156 139 137 141 147 152 156 157 161 166 166 170 164 170 196 193 201 178 163 150 180 205 246
280 299 286 285 291 304 298 299 307 299 288 276 273 257 206 169 161 156 155 148 203 169 157 148 142 139 141 147 152 166 162 161 167 163 168 184 188 213 186 173 174 187 205 229
282 301 300 299 306 320 305 304 290 281 279 269 261 265 196 172 161 142 137 126 140 150 144 144 144 141 141 137 137 144 152 160 167 172 177 194 205 207 202 187 170 191 219 222
298 309 312 305 309 305 300 303 292 281 272 267 256 265 216 156 154 128 82 30 56 84 125 135 141 134 131 131 129 135 148 153 164 178 175 192 214 209 191 182 183 208 217 217
297 305 306 314 304 294 301 296 287 274 272 266 263 260 225 138 129 115 102 61 28 87 104 102 113 120 118 116 113 118 131 140 160 181 177 196 205 208 205 220 222 233 233 229
311 294 303 314 310 308 315 316 309 296 277 277 276 263 97 95 89 95 106 100 62 68 78 82 95 104 107 106 112 120 125 138 161 183 178 193 212 220 219 226 235 248 249 242
325 325 334 328 313 310 308 300 301 298 299 299 290 284 99 90 89 81 80 77 69 57 56 60 66 71 83 98 108 112 125 133 138 157 170 187 204 233 239 251 271 262 263 265
330 318 318 308 301 297 300 300 304 297 295 288 286 119 103 82 78 73 69 66 64 58 56 57 65 65 70 75 84 98 110 117 123 132 148 193 215 239 249 254 256 265 280 276
326 311 307 306 295 291 306 323 327 311 308 297 294 315 56 94 81 80 75 66 60 48 45 58 59 59 69 73 72 83 90 107 125 148 206 222 230 246 244 256 260 261 265 286
338 316 309 316 320 320 329 334 331 320 313 310 303 333 63 93 91 87 72 62 64 51 41 43 55 54 64 76 78 73 84 104 134 183 208 246 260 274 270 267 263 261 274 269
350 321 309 310 310 332 337 331 324 315 307 305 301 333 61 90 88 82 76 60 53 45 45 47 42 54 50 48 56 75 129 172 191 191 175 171 231 292 287 284 284 290 274 272
341 323 312 318 325 340 334 326 320 312 306 307 302 304 78 80 74 70 65 57 49 47 38 49 43 39 33 21 17 357 343 236 229 237 198 211 235 289 302 285 274 264 259 259
295 300 304 304 308 316 314 307 306 303 303 301 300 306 353 31 52 44 47 50 42 39 32 31 35 26 17 18 12 350 353 343 335 332 302 282 257 270 295 293 287 278 278 280
321 297 301 297 295 299 299 301 303 307 305 296 304 327 356 18 39 39 33 36 32 19 17 18 11 7 5 2 3 358 347 346 347 314 291 282 260 232 254 275 282 278 282 290
328 304 303 295 292 295 299 308 308 310 318 311 304 348 5 26 46 51 35 26 19 11 9 358 351 353 348 342 336 343 333 327 313 296 289 280 276 267 258 256 256 259 264 281
305 310 306 301 313 307 307 344 341 353 359 341 344 6 18 31 29 30 27 16 14 11 358 349 346 341 336 331 324 318 306 301 298 291 289 287 275 274 275 272 262 266 275 280
284 302 299 299 310 304 354 357 352 345 15 10 17 18 16 26 41 44 43 33 16 5 353 344 334 334 331 333 329 301 298 296 289 292 305 303 282 278 275 273 259 253 263 265
230 268 286 294 303 300 330 351 342 342 12 21 19 19 17 21 25 50 42 30 15 359 346 331 323 326 323 315 309 294 303 305 307 312 305 298 296 288 273 267 275 266 259 263
231 237 262 282 294 294 338 343 347 332 350 21 11 8 2 358 338 355 4 0 7 3 346 334 324 323 322 321 316 304 303 306 308 303 297 301 305 298 276 259 258 260 255 258
293 278 276 283 284 298 1 349 348 339 348 349 355 359 359 360 346 336 333 347 5 353 340 333 325 325 317 315 317 318 311 309 307 300 299 306 304 297 287 267 264 263 261 265
305 301 301 300 294 312 5 360 12 352 335 337 345 358 4 354 345 338 338 345 344 336 329 325 322 322 311 298 294 303 304 305 301 295 300 305 302 298 296 284 277 268 261 264
308 320 317 314 312 336 356 3 358 345 332 332 332 345 343 337 333 332 334 332 331 332 326 322 314 312 304 291 279 290 296 296 293 288 296 294 292 290 285 272 274 273 261 262
311 325 311 305 316 331 340 348 354 348 336 328 329 341 338 335 329 326 326 322 325 325 323 316 313 314 310 302 292 278 281 286 291 285 280 273 275 271 271 282 291 280 291 292
306 308 300 295 312 322 327 338 342 338 331 330 335 333 331 327 317 314 314 309 311 314 311 304 306 307 305 300 300 290 286 288 291 286 272 270 266 254 251 244 317 315 338 333
298 298 301 306 323 317 318 324 323 320 323 326 329 326 326 318 312 309 309 304 294 296 296 293 294 297 299 300 302 301 279 276 285 285 281 279 273 255 242 213 199 6 228 153